Content
SEND FEEDBACK

Daily
Averages
Monthly
Summary
Thailand

RAYONG, THAILAND


Home > Asia > Thailand
Elevation: 16 feet     Latitude: 12 38N     Longitude: 101 21E

WEATHER
 
SELECT A DAY
Number of Records: 198,565;   Date Range: 7/1/96 - 7/20/14
 
SHARE

PRINT THIS DATA

[ ← Previous Day ]
WEATHER ALMANAC - MARCH 17, 2013
[ Next Day → ]
[ °C ]   °F
Weather ElementAverageHighLow
Temperature84.4 °F89.6 °F (11:30 am)78.8 °F (5:30 am)
Dewpoint74.9 °F77 °F (11:30 am)73.4 °F (9:00 am)
Humidity73.9 %89 % (5:30 am)59 % (12:00 pm)
Barometer29.86 in29.92 in (12:30 am)29.77 in (5:00 pm)
Wind Speed7.3 mph11.5 mph (1:00 pm)
Weather ElementAverage
Visibility3.7 mi
Wind DirectionS (178.8 °)

Weather ElementTotal
Precipitation---
Cooling Degree Days19.2 (Base 65)
Growing Degree Days34.2 (Base 50)
Averaged from 43 records on March 17, 2013
WEATHER CONDITIONS BREAKOUT
WIND DIRECTION BREAKOUT
WEATHER BY HOUR - MARCH 17, 2013
[ °C ]   °F
Local TimeTemperatureDewpointHumidityBarometerVisibilityWind DirectionWind SpeedGust SpeedPrecipitationEventsConditions
12:30 AM80.6 °F75.2 °F84 %29.92 in3.1 miWSW (240°)3.5 mphMostly Cloudy
1:00 AM80.6 °F75.2 °F84 %29.92 in3.1 miSSW (210°)6.9 mphMostly Cloudy
1:30 AM80.6 °F75.2 °F84 %29.92 in3.1 miSW (220°)3.5 mphMostly Cloudy
2:30 AM80.6 °F75.2 °F84 %29.92 in3.1 miSSW (210°)3.5 mphMostly Cloudy
3:00 AM80.6 °F75.2 °F84 %29.89 in3.1 miWSW (240°)6.9 mphMostly Cloudy
4:30 AM80.6 °F75.2 °F84 %29.89 in3.1 miSSW (210°)3.5 mphMostly Cloudy
5:30 AM78.8 °F75.2 °F89 %29.86 in3.1 miSSW (210°)4.6 mphMostly Cloudy
6:00 AM78.8 °F75.2 °F89 %29.89 in3.1 miCalmMostly Cloudy
6:30 AM78.8 °F75.2 °F89 %29.89 in3.1 miCalmMostly Cloudy
7:00 AM78.8 °F75.2 °F89 %29.89 in3.1 miCalmMostly Cloudy
7:30 AM78.8 °F75.2 °F89 %29.89 in3.1 miCalmMostly Cloudy
8:00 AM80.6 °F75.2 °F84 %29.92 in3.1 miNorth (350°)3.5 mphMostly Cloudy
8:30 AM82.4 °F75.2 °F79 %29.92 in3.1 miWest (270°)5.8 mphMostly Cloudy
9:00 AM84.2 °F73.4 °F70 %29.92 in3.1 miSSW (200°)5.8 mphMostly Cloudy
9:30 AM87.8 °F75.2 °F66 %29.92 in3.1 miSSW (200°)6.9 mphMostly Cloudy
10:00 AM87.8 °F73.4 °F62 %29.92 in3.7 miSSW (200°)6.9 mphMostly Cloudy
10:30 AM87.8 °F75.2 °F66 %29.92 in3.7 miSouth (180°)8.1 mphMostly Cloudy
11:00 AM87.8 °F75.2 °F66 %29.92 in3.7 miSouth (180°)9.2 mphMostly Cloudy
11:30 AM89.6 °F77.0 °F66 %29.89 in3.7 miSouth (180°)10.4 mphMostly Cloudy
12:00 PM89.6 °F73.4 °F59 %29.89 in3.7 miSouth (180°)9.2 mphMostly Cloudy
12:30 PM89.6 °F75.2 °F62 %29.86 in4.3 miSouth (180°)9.2 mphMostly Cloudy
1:00 PM89.6 °F75.2 °F62 %29.86 in4.3 miSouth (180°)11.5 mphMostly Cloudy
1:30 PM89.6 °F75.2 °F62 %29.83 in4.3 miSouth (180°)11.5 mphMostly Cloudy
2:00 PM89.6 °F75.2 °F62 %29.83 in4.3 miSouth (180°)11.5 mphMostly Cloudy
2:30 PM89.6 °F75.2 °F62 %29.80 in5.0 miSouth (180°)11.5 mphMostly Cloudy
3:00 PM89.6 °F75.2 °F62 %29.80 in5.0 miSouth (180°)9.2 mphMostly Cloudy
3:30 PM87.8 °F75.2 °F66 %29.80 in5.0 miSouth (180°)9.2 mphMostly Cloudy
4:00 PM87.8 °F75.2 °F66 %29.80 in5.0 miSouth (180°)9.2 mphMostly Cloudy
4:30 PM87.8 °F73.4 °F62 %29.80 in5.0 miSouth (190°)9.2 mphMostly Cloudy
5:00 PM86.0 °F73.4 °F66 %29.77 in4.3 miSouth (180°)9.2 mphMostly Cloudy
5:30 PM84.2 °F73.4 °F70 %29.77 in4.3 miSSE (160°)9.2 mphMostly Cloudy
6:00 PM84.2 °F75.2 °F74 %29.80 in4.3 miSouth (180°)9.2 mphMostly Cloudy
6:30 PM84.2 °F73.4 °F70 %29.80 in3.7 miSouth (180°)9.2 mphMostly Cloudy
7:00 PM84.2 °F75.2 °F74 %29.80 in3.7 miSouth (170°)9.2 mphMostly Cloudy
7:30 PM84.2 °F75.2 °F74 %29.80 in3.7 miSouth (180°)9.2 mphMostly Cloudy
8:00 PM84.2 °F75.2 °F74 %29.83 in3.7 miSouth (180°)9.2 mphMostly Cloudy
8:30 PM84.2 °F75.2 °F74 %29.83 in3.7 miSSW (200°)9.2 mphMostly Cloudy
9:00 PM82.4 °F75.2 °F79 %29.83 in3.7 miSouth (180°)9.2 mphMostly Cloudy
9:30 PM84.2 °F75.2 °F74 %29.83 in3.7 miSouth (170°)6.9 mphMostly Cloudy
10:00 PM82.4 °F75.2 °F79 %29.83 in3.7 miSSW (200°)9.2 mphMostly Cloudy
10:30 PM82.4 °F75.2 °F79 %29.83 in3.7 miSSW (210°)6.9 mphMostly Cloudy
11:00 PM82.4 °F75.2 °F79 %29.83 in3.7 miSouth (190°)9.2 mphMostly Cloudy
11:30 PM82.4 °F75.2 °F79 %29.83 in3.7 miSSW (200°)9.2 mphMostly Cloudy
Hourly data recorded from VTBU, located miles away from Rayong, Thailand







STORIES FROM OUR PARTNERS